Location: Peebles
(55.6412°N, 3.1714°W)
Time: 01:48:08
(UTC+01:00)

deb r/b Ablestar - Pass Details

Date: 11 July 2022
Orbit: 859 x 1154 km, 67.2° (Epoch: 13 August)

Event Time Altitude Azimuth Distance (km) Brightness Sun altitude
Rises 02:19:38 0° 314° (NW) 4,030 ? -11.1°
Reaches altitude 10° 02:23:47 10° 292° (WNW) 3,059 ? -11.0°
Maximum altitude 02:27:22 14° 263° (W) 2,711 ? -10.9°
Drops below altitude 10° 02:30:55 10° 233° (SW) 3,007 ? -10.7°
Enters shadow 02:31:43 - 227° (SW) 3,153 ? -10.7°
